Regional Weather Roundup
Issued by NWS

Home | Current Version | Previous Version | Graphics & Text | Print | Product List | Glossary On
Versions: 1 2 3 4 5 6 7 8 9 10 11 12 13 14 15 16 17 18 19 20 21 22 23 24 25 26 27 28 29 30 31 32 33 34 35 36 37 38 39 40 41 42 43 44 45 46 47 48 49 50
000
ASUS43 KMKX 032311
RWRWI

WISCONSIN REGIONAL WEATHER ROUNDUP
NATIONAL WEATHER SERVICE MILWAUKEE/SULLIVAN WI
600 PM CDT THU SEP 03 2015

NOTE: "FAIR" INDICATES FEW OR NO CLOUDS BELOW 12,000 FEET WITH NO
SIGNIFICANT WEATHER AND/OR OBSTRUCTIONS TO VISIBILITY.

WIZ001-002-006>008-014>016-023>028-040000-
NORTHWEST WISCONSIN

CITY           SKY/WX    TMP DP  RH WIND       PRES   REMARKS
SUPERIOR ARPT  CLOUDY    60  59  97 NE6       29.96S
ASHLAND        SUNNY     66  63  90 N8        29.97F
HAYWARD        SUNNY     81  65  58 S3        29.94F HX  83
SIREN          SUNNY     82  66  58 E5        29.92S HX  84
CUMBERLAND     SUNNY     79  64  61 E6        29.93S HX  81
RICE LAKE      SUNNY     80  67  63 E6        29.94S HX  82
CHETEK         SUNNY     80  69  69 E5        29.92F HX  83
LADYSMITH      SUNNY     80  65  61 E3        29.96S HX  82
EAU CLAIRE     SUNNY     81  67  62 E10       29.91S HX  83
MENOMONIE      SUNNY     82  68  63 E8        29.91S HX  84
NEW RICHMOND   SUNNY     80  67  63 E8        29.90F HX  82
OSCEOLA        SUNNY     81  68  64 E10       29.92S HX  84
$$

WIZ003>005-009-010-017-018-040000-
NORTH CENTRAL WISCONSIN

CITY           SKY/WX    TMP DP  RH WIND       PRES   REMARKS
MANITOWISH WTR MOSUNNY   77  65  65 CALM      29.98S
ARBOR VITAE    SUNNY     77  65  67 SE7       29.98S
WOODRUFF       SUNNY     77  65  67 SE7       29.98S
RHINELANDER    SUNNY     76  63  64 SE8       29.99F
EAGLE RIVER    SUNNY     76  60  57 SE3       29.98F
LAND O LAKES   SUNNY     77  62  59 SE6       30.00S
PHILLIPS       SUNNY     78  65  63 NE7       29.96S HX  80
TOMAHAWK       MOSUNNY   74  65  74 E5        29.98S
MEDFORD        SUNNY     74  66  75 SE3       29.97S
MERRILL        MOSUNNY   78  67  69 E10G16    29.97S HX  80
$$

WIZ029-030-035-036-043>047-040000-
CENTRAL WISCONSIN

CITY           SKY/WX    TMP DP  RH WIND       PRES   REMARKS
WAUSAU         PTSUNNY   77  66  68 E9        29.95S
MOSINEE        PTSUNNY   73  68  83 E7        29.98S
MARSHFIELD     SUNNY     77  63  61 E9        29.96S
STEVENS POINT  MOSUNNY   73  65  77 E7        29.97S
WAUPACA        CLOUDY    75  69  81 CALM      29.96S
WAUTOMA        CLOUDY    76  68  76 NE7       29.95R
WISC RAPIDS    MOSUNNY   78  64  61 E9        29.96R HX  80
CAMP DOUGLAS   SUNNY     82  74  77 NE5       29.91S HX  87
$$

WIZ011>013-019>022-031-037>040-048>050-040000-
NORTHEAST WISCONSIN

CITY           SKY/WX    TMP DP  RH WIND       PRES   REMARKS
ANTIGO         PTSUNNY   74  65  72 NE3       29.99S
SHAWANO        NOT AVBL
OCONTO         SUNNY     76  68  76 NE5       29.93S
STURGEON BAY   SUNNY     72  63  73 N12       29.96S
GREEN BAY      SUNNY     75  67  76 NE9       29.94S
MANITOWOC      SUNNY     72  67  84 MISG      29.94R
APPLETON       PTSUNNY   73  63  68 NW7       29.94S
CLINTONVILLE   MOSUNNY   77  63  61 N6        29.95S
OSHKOSH        CLOUDY    74  66  76 N6        29.94S
$$

WIZ032>034-041-042-053>061-040000-
SOUTHWEST WISCONSIN

CITY           SKY/WX    TMP DP  RH WIND       PRES   REMARKS
LA CROSSE      SUNNY     86  72  62 E8        29.87S HX  92
SPARTA         SUNNY     84  68  57 E6        29.91S HX  87
VIROQUA          N/A     84  74  72 E6        29.92R HX  91
BOSCOBEL       PTSUNNY   89  73  59 CALM      29.87S HX  97
PRAIRIE DU CHI SUNNY     89  69  51 CALM      29.86S HX  93
PLATTEVILLE    SUNNY     87  74  64 SE3       29.90S HX  95
$$

WIZ056-057-062-063-064-067-068-040000-
SOUTH CENTRAL WISCONSIN

CITY           SKY/WX    TMP DP  RH WIND       PRES   REMARKS
REEDSBURG      SUNNY     84  72  66 NE5       29.91R HX  89
BARABOO/DELLS  MOSUNNY   83  67  59 E7        29.92R HX  85
LONE ROCK      PTSUNNY   84  75  74 NE6       29.89R HX  92
MINERAL POINT  MOSUNNY   88  72  58 SW5       29.91S HX  94
MADISON        PTSUNNY   82  71  69 NE12      29.91R HX  86
MIDDLETON      SUNNY     84  71  65 NE6       29.91S HX  89
WATERTOWN      SUNNY     78  71  81 NE10      29.91S
MONROE         SUNNY     84  72  65 W7        29.90S HX  89
JANESVILLE     PTSUNNY   84  72  65 CALM      29.89R HX  89
$$

WIZ051-052-058>065-066-070>072-040000-
SOUTHEAST WISCONSIN

CITY           SKY/WX    TMP DP  RH WIND       PRES   REMARKS
MILWAUKEE      MOSUNNY   69  64  84 NE9       29.92R
WAUKESHA       PTSUNNY   77  68  73 NE9       29.93R
MILWAUKEE/TIMM MOSUNNY   73  64  73 NE7       29.92R
RACINE         SUNNY     73  65  75 NE13      29.93R
BURLINGTON     MOSUNNY   77  69  76 E13       29.91R
KENOSHA        MOSUNNY   75  68  78 NE9       29.91R
FOND DU LAC    SUNNY     75  67  76 NE13      29.94S
SHEBOYGAN      PTSUNNY   70  66  87 NE10      29.93R
WEST BEND      SUNNY     73  63  68 N8        29.93R
JUNEAU         SUNNY     76  67  73 N12       29.94S
$$

LSZ147-162-040000-
LAKE SUPERIOR

STATION/POSITION TIME  TEMP    WIND        PRES    WAVE
                       AIR SEA DIR/SP/G            HT/PER
                 (UTC) (F)     (DEG/KT/KT) (MB)    (FT/S)
W MID LAKE BUOY  2250   59 57   40/  8/  8 1015.1F   0
DEVILS ISLAND    2300   60      70/  8/  8 1015.1F
PORT WING        2240   58      30/ 15/ 16 1014.2F
SAXON HARBOR     2200   62      40/  5/  8 1014.6F
$$

LMZ867-665-643>646-040000-
LAKE MICHIGAN

STATION/POSITION TIME  TEMP    WIND        PRES    WAVE
                       AIR SEA DIR/SP/G            HT/PER
                 (UTC) (F)     (DEG/KT/KT) (MB)    (FT/S)
CHAMBERS ISLAND  2200   68      20/  6/  7 1013.9R
S GREEN BAY BUOY 2200   68 67   50/  8/ 10 1015.1R
N MID LAKE BUOY  2250   68 67  340/ 10/ 12 1013.0F   1/ 3
NORTHPORT PIER   2200   71     340/  4/  7 1013.5F
SISTER BAY       2211   75      10/  9/ 11   N/A
ALGOMA LAKESHORE 2214           60/ 13/ 16   N/A
KEWAUNEE LAKESHO 2200   66      30/  4/  7 1012.6F
SHEBOYGAN LAKESH 2300   60      10/  8/  9 1013.8R
PORT WASHINGTON  2200   62      40/  8/ 10 1013.5R
ATWATER BUOY     2300   62     300/  4/  4 1014.6R
MILWAUKEE LAKESH 2210   66      30/  6/  7   N/A
S MID LAKE BUOY  2250   71 71   10/ 12/ 14 1012.1R
KENOSHA   LAKESH 2300   62     360/  9/ 12 1012.5R
$$

TC  - TEMPERATURE IN CELSIUS
VSB - VISIBILITY IN STATUTE MILES
WCI - WIND CHILL INDEX
HX  - HEAT INDEX



USA.gov is the U.S. government's official web portal to all federal, state and local government web resources and services.